Wind_Speed
13 10 10 11 11 10 11 10 11 14 14 14 10 5 8 8 9 11 12 10 9 8 7 7 8 9 9 10 11 11 11 12 12 13 12 11 10 10 10 11 13 15 15
15 15 12 14 14 12 12 9 18 18 20 17 12 10 8 7 8 9 11 12 10 8 8 8 8 9 10 10 11 11 11 11 13 13 13 14 14 13 12 12 12 13 16
13 17 16 13 14 16 14 11 19 24 32 29 21 15 9 5 7 9 10 10 10 10 9 9 8 9 10 11 11 12 13 12 13 13 14 14 14 15 16 15 15 15 15
13 16 19 13 16 8 9 9 9 10 15 21 24 15 12 4 5 7 8 8 9 9 10 10 10 11 11 12 13 13 13 14 14 15 15 15 15 15 15 16 17 19 19
12 13 19 18 18 23 6 10 8 11 25 17 17 12 12 1 4 5 6 8 9 10 11 11 11 11 11 12 12 13 14 15 15 15 16 17 17 17 17 18 19 19 19
11 11 15 18 15 12 8 11 16 15 13 3 5 12 6 1 4 5 7 8 9 11 12 13 14 14 14 15 15 16 17 18 17 18 18 18 19 19 20 20 19 20 22
13 12 9 13 6 11 7 11 13 13 9 5 15 7 2 3 6 7 8 8 11 12 13 14 15 16 17 17 18 20 19 19 18 17 17 17 18 18 19 21 22 23 24
14 10 9 13 15 11 8 10 11 8 4 11 9 4 3 4 5 6 8 11 13 15 16 17 19 20 19 19 20 18 17 17 17 17 18 18 18 19 18 20 20 21 21
15 13 12 12 13 10 11 12 10 7 9 8 6 3 4 4 4 5 8 11 15 17 18 17 19 19 19 19 17 15 16 16 16 16 16 15 16 18 20 20 21 22 22
16 16 12 11 10 10 13 13 9 8 8 8 6 5 5 4 4 6 10 15 18 19 19 20 19 18 17 13 13 13 14 15 15 16 16 17 19 20 23 25 26 25 26
18 18 16 13 10 12 11 12 11 9 10 9 8 6 5 6 7 9 13 16 19 18 18 17 15 12 10 12 14 15 15 15 14 15 17 20 22 23 24 25 26 28 29
20 19 16 14 13 12 10 11 12 10 11 10 8 8 7 6 8 11 16 19 20 21 19 13 11 10 12 14 15 18 19 15 16 19 21 23 25 27 28 29 30 31 32
21 18 21 15 12 12 11 12 13 12 12 10 9 9 8 8 10 14 17 18 18 17 12 10 11 11 11 12 14 15 17 17 22 25 27 29 30 31 32 32 32 32 33
21 21 19 13 13 13 12 15 15 14 13 11 11 10 9 9 13 17 17 16 15 12 10 12 11 11 12 15 13 15 18 24 27 30 32 32 31 31 31 32 32 31 29
23 20 16 15 13 14 15 14 13 13 13 11 10 8 7 11 15 18 16 13 12 11 11 12 12 13 12 10 17 21 25 27 29 33 34 34 33 33 32 30 30 30 29
12 11 15 15 16 14 14 13 10 10 12 11 9 7 9 13 17 20 17 13 11 10 11 11 12 14 15 15 23 23 27 28 31 35 36 35 35 34 32 29 28 28 28
17 17 17 15 13 14 17 14 9 14 12 10 8 8 11 16 17 18 14 13 12 11 10 8 12 11 10 19 24 25 27 29 34 37 36 34 34 32 31 30 28 28 27
18 14 12 11 14 17 16 9 10 10 11 9 9 10 14 15 15 14 13 10 9 8 8 11 12 10 16 22 24 26 28 32 35 36 34 33 33 32 30 28 27 27 26
12 11 11 12 13 11 12 11 12 12 9 9 10 12 13 12 10 10 11 8 5 8 12 15 15 20 26 31 31 29 31 33 36 35 34 33 31 31 29 27 25 26 25
11 13 14 13 9 9 7 8 7 7 8 11 12 10 8 7 6 9 12 12 6 11 13 17 19 24 26 30 31 30 30 31 34 34 33 32 30 30 28 26 26 24 23
11 11 13 9 5 8 9 10 9 7 10 11 10 7 7 4 8 12 15 14 8 16 20 21 26 22 25 29 31 28 27 30 33 33 33 32 30 28 26 26 25 24 23
12 10 7 8 9 6 6 9 9 8 9 11 8 5 4 7 8 13 15 16 14 20 25 25 26 22 27 28 31 29 30 31 33 33 32 31 29 27 25 24 23 22 22
8 8 7 7 8 8 6 7 9 11 12 12 9 6 7 8 12 17 20 19 20 25 29 24 21 24 30 28 29 27 27 30 33 32 31 29 27 25 24 23 22 21 21
8 7 9 9 9 7 8 11 11 12 11 10 8 8 11 12 13 18 17 20 22 27 23 24 26 31 31 29 28 28 30 31 33 32 31 30 28 26 24 23 22 21 21
7 9 10 10 9 10 11 10 9 11 10 10 8 8 9 9 11 14 20 26 26 34 23 22 21 25 28 30 28 27 28 32 33 31 31 29 27 26 24 23 23 22 22
11 12 12 11 10 9 8 9 11 11 10 10 7 10 16 15 16 19 23 25 33 24 21 22 23 25 27 30 28 28 30 33 31 31 30 29 26 24 24 23 24 23 22
Wind_Direction
251 250 242 239 242 239 245 246 259 251 242 248 245 257 279 320 347 350 350 351 350 349 347 344 336 334 333 329 331 332 328 322 318 321 323 320 310 303 297 289 279 277 274
261 251 251 246 240 240 241 243 271 268 255 245 243 238 249 302 340 349 350 340 343 344 341 345 341 337 333 331 328 328 325 322 321 320 319 315 314 308 299 291 283 277 275
263 252 253 251 251 230 213 251 251 263 246 230 222 222 216 293 341 349 347 339 337 336 337 334 333 329 327 330 328 327 328 323 318 316 312 308 306 309 307 302 297 290 283
263 253 252 249 247 228 267 337 246 302 0 194 219 211 217 259 353 347 345 344 335 329 328 326 329 332 330 329 328 325 322 320 318 314 313 311 307 302 299 298 298 296 292
257 257 245 243 258 297 265 310 332 281 294 326 239 208 216 307 355 338 338 343 333 330 331 328 327 326 324 323 322 323 319 317 316 312 309 305 303 301 296 292 289 284 278
243 249 237 249 266 288 297 303 323 316 301 279 276 161 191 274 322 337 339 341 337 331 329 324 322 321 322 320 320 321 317 315 314 312 311 309 306 303 300 296 292 289 288
230 244 240 223 302 247 273 305 320 313 304 241 179 188 201 321 335 334 342 341 339 330 324 327 324 320 320 323 325 323 323 323 322 319 314 311 308 306 304 303 301 297 293
232 230 224 234 246 255 307 309 309 298 207 165 171 198 284 303 319 333 333 334 330 327 328 331 324 321 324 327 324 325 329 329 331 332 331 329 325 320 315 309 304 299 293
226 217 218 231 243 273 299 302 283 264 208 221 208 231 260 286 308 319 317 323 324 322 321 321 311 314 316 318 325 332 330 326 324 322 320 321 319 316 312 307 300 297 295
227 221 221 240 255 269 291 292 264 246 217 210 215 238 260 276 291 303 320 324 324 321 321 315 312 311 314 318 320 318 314 310 308 315 311 312 315 318 320 318 314 310 306
220 224 226 233 247 265 280 276 245 240 224 223 229 232 259 290 303 312 319 317 315 313 313 305 307 313 313 313 318 316 315 318 320 319 317 315 316 316 316 314 314 313 310
215 226 221 239 252 261 260 253 236 232 223 224 233 247 259 271 291 304 317 319 316 316 317 317 321 325 318 312 314 322 333 327 324 324 325 325 324 321 318 317 314 311 308
219 220 230 238 255 256 256 240 222 226 220 221 231 245 259 275 289 305 316 315 312 313 313 311 313 308 304 309 317 332 330 324 328 327 325 324 322 321 320 316 313 309 305
217 220 226 239 252 252 255 231 218 216 211 216 228 241 259 283 299 306 311 315 308 303 303 304 301 302 308 319 338 332 335 336 331 328 327 325 323 320 316 310 306 305 303
212 217 231 244 261 262 249 225 216 220 222 220 235 249 277 291 299 305 317 308 301 301 294 295 300 310 323 349 344 321 334 335 330 328 326 323 320 316 313 311 309 307 305
219 237 249 255 269 249 224 198 204 229 232 232 236 258 281 293 305 315 316 313 308 307 313 322 332 316 329 323 324 327 331 331 330 328 326 322 320 320 321 318 314 312 309
204 235 249 273 244 228 205 201 234 232 222 232 246 275 302 308 317 314 312 310 310 315 324 331 339 337 320 312 320 326 327 327 329 329 326 322 322 321 320 318 317 316 314
215 229 252 238 212 206 217 253 227 233 235 232 268 304 311 312 311 312 313 310 300 320 320 323 331 339 328 328 327 326 331 330 330 328 324 323 320 320 320 317 317 316 315
226 242 241 217 201 215 239 238 213 234 243 273 294 303 306 299 303 314 350 334 324 326 326 342 332 332 332 330 326 325 325 326 328 328 325 323 320 320 320 319 319 318 317
235 223 204 193 222 204 187 198 212 242 271 284 291 293 277 267 295 6 8 357 345 350 344 342 337 323 326 330 333 325 320 322 325 326 325 323 321 319 320 321 320 318 316
189 188 191 207 191 194 217 219 226 255 276 281 280 267 245 290 354 1 351 339 342 353 349 338 336 327 329 337 330 323 317 320 324 326 326 324 321 319 319 320 319 318 316
174 187 201 201 205 208 206 222 258 278 277 269 252 244 318 334 318 337 336 333 329 341 340 332 328 327 333 329 326 320 312 318 324 326 326 323 320 319 319 320 318 316 314
191 205 212 219 228 242 258 280 278 268 254 245 236 245 264 268 290 310 319 329 327 329 324 315 318 327 336 330 330 325 321 322 326 326 326 325 322 321 321 321 320 317 314
218 234 229 241 259 274 269 260 251 247 245 237 247 271 280 290 291 300 321 334 321 317 315 310 309 320 326 329 328 322 324 327 328 327 328 328 326 324 323 323 322 319 317
225 228 242 253 258 256 251 256 259 251 237 232 233 272 304 305 304 313 320 318 312 319 320 330 332 330 328 331 326 323 324 327 328 328 329 329 326 324 324 325 323 325 323
224 240 246 253 260 269 264 259 250 245 237 234 251 274 294 308 314 318 317 307 310 311 315 307 311 324 326 327 326 324 325 327 329 328 329 329 328 326 326 326 325 327 326
Height
3181 3181 3180 3181 3181 3183 3184 3185 3185 3186 3185 3183 3183 3183 3184 3183 3182 3181 3179 3178 3175 3173 3172 3170 3168 3167 3165 3165 3163 3162 3160 3158 3156 3154 3153 3151 3149 3147 3145 3144 3143 3142 3142
3178 3178 3178 3177 3177 3178 3180 3181 3182 3182 3179 3178 3178 3180 3181 3180 3179 3179 3178 3177 3174 3172 3171 3169 3167 3165 3164 3163 3161 3160 3158 3156 3154 3152 3150 3149 3147 3144 3143 3141 3139 3138 3137
3175 3175 3176 3175 3173 3168 3171 3177 3173 3172 3164 3166 3168 3175 3176 3177 3177 3177 3176 3175 3173 3172 3169 3167 3165 3163 3162 3160 3158 3156 3154 3153 3151 3148 3147 3146 3144 3141 3138 3136 3135 3134 3133
3173 3173 3175 3174 3171 3167 3173 3170 3171 3172 3152 3135 3160 3168 3175 3175 3174 3174 3174 3173 3172 3170 3169 3167 3165 3162 3160 3158 3156 3154 3151 3149 3147 3146 3144 3142 3141 3138 3136 3133 3131 3130 3129
3171 3171 3172 3173 3164 3161 3167 3171 3170 3169 3166 3164 3164 3168 3174 3174 3173 3172 3171 3170 3170 3168 3167 3165 3163 3161 3158 3155 3153 3151 3149 3147 3145 3142 3141 3139 3136 3134 3132 3130 3127 3126 3124
3167 3168 3168 3168 3168 3168 3168 3168 3167 3168 3167 3166 3167 3169 3171 3171 3171 3169 3169 3168 3168 3167 3165 3164 3161 3158 3154 3152 3150 3148 3146 3143 3142 3139 3137 3135 3133 3131 3127 3125 3123 3121 3119
3163 3163 3164 3165 3165 3168 3169 3168 3166 3165 3163 3162 3165 3167 3169 3170 3169 3168 3167 3167 3166 3165 3164 3161 3158 3155 3151 3148 3146 3144 3141 3140 3138 3136 3133 3131 3129 3126 3123 3120 3117 3115 3112
3159 3160 3161 3162 3162 3163 3164 3164 3164 3164 3163 3164 3164 3165 3167 3168 3167 3166 3165 3164 3163 3163 3161 3158 3154 3151 3148 3145 3143 3141 3138 3136 3133 3131 3128 3125 3123 3120 3117 3114 3112 3110 3107
3155 3157 3158 3159 3161 3159 3160 3161 3161 3162 3162 3163 3164 3164 3165 3165 3164 3164 3164 3163 3162 3160 3158 3154 3150 3147 3145 3143 3139 3136 3134 3131 3129 3126 3124 3122 3119 3116 3112 3109 3106 3103 3100
3152 3153 3154 3154 3155 3156 3157 3158 3158 3159 3160 3161 3162 3163 3163 3163 3162 3163 3161 3159 3158 3155 3152 3149 3146 3144 3142 3139 3136 3134 3132 3130 3127 3124 3122 3119 3115 3112 3108 3104 3101 3097 3093
3148 3150 3151 3152 3152 3153 3153 3154 3155 3156 3157 3158 3159 3159 3159 3159 3160 3160 3159 3158 3155 3151 3148 3146 3143 3141 3139 3136 3133 3131 3129 3127 3123 3120 3117 3114 3110 3106 3103 3099 3094 3090 3086
3142 3145 3149 3149 3149 3150 3150 3150 3152 3152 3153 3154 3156 3157 3157 3157 3157 3157 3155 3152 3148 3145 3143 3140 3138 3137 3134 3132 3130 3127 3124 3122 3119 3117 3113 3109 3104 3099 3095 3091 3087 3083 3079
3136 3139 3143 3144 3145 3145 3145 3145 3147 3149 3150 3151 3153 3154 3155 3154 3154 3153 3151 3147 3144 3142 3139 3138 3136 3134 3132 3129 3127 3125 3122 3119 3115 3111 3107 3102 3097 3092 3087 3083 3079 3075 3070
3131 3134 3137 3139 3140 3141 3141 3141 3143 3145 3146 3148 3149 3150 3151 3151 3150 3148 3146 3142 3140 3138 3136 3134 3132 3129 3127 3126 3124 3121 3118 3114 3110 3105 3100 3095 3090 3086 3081 3076 3071 3067 3063
3126 3128 3132 3133 3135 3136 3137 3138 3139 3141 3144 3145 3146 3146 3147 3146 3145 3144 3141 3139 3137 3134 3132 3130 3128 3126 3125 3124 3122 3118 3113 3109 3104 3100 3094 3089 3084 3079 3074 3069 3064 3059 3055
3124 3125 3128 3130 3131 3132 3133 3135 3137 3138 3139 3141 3142 3142 3142 3142 3140 3137 3135 3133 3131 3130 3128 3126 3124 3122 3121 3120 3117 3113 3108 3104 3099 3094 3088 3081 3075 3070 3066 3061 3056 3051 3046
3118 3121 3125 3127 3126 3128 3130 3131 3132 3133 3134 3136 3137 3137 3137 3136 3133 3131 3130 3128 3126 3126 3124 3122 3121 3119 3118 3116 3112 3108 3103 3099 3093 3087 3080 3074 3069 3064 3058 3054 3049 3044 3040
3115 3117 3120 3123 3122 3124 3126 3128 3128 3130 3130 3131 3131 3130 3130 3129 3128 3127 3125 3124 3123 3122 3122 3121 3120 3117 3116 3112 3107 3102 3097 3092 3087 3081 3075 3069 3064 3058 3053 3048 3043 3038 3034
3110 3112 3115 3118 3119 3122 3122 3122 3124 3125 3126 3125 3125 3126 3126 3125 3124 3124 3123 3121 3121 3120 3119 3117 3116 3114 3110 3106 3101 3096 3091 3087 3081 3076 3070 3064 3058 3052 3048 3043 3038 3033 3028
3106 3109 3112 3114 3116 3116 3117 3118 3119 3120 3120 3120 3121 3122 3122 3122 3121 3120 3119 3120 3120 3118 3117 3115 3112 3109 3105 3101 3096 3091 3087 3082 3077 3071 3065 3058 3053 3047 3042 3037 3032 3028 3024
3103 3106 3109 3111 3112 3113 3114 3115 3116 3117 3116 3117 3118 3119 3120 3119 3118 3117 3117 3116 3115 3114 3113 3110 3108 3105 3101 3096 3092 3087 3082 3078 3072 3066 3060 3053 3047 3042 3037 3032 3027 3023 3019
3102 3104 3105 3107 3109 3110 3110 3111 3112 3112 3113 3114 3115 3116 3115 3115 3115 3115 3115 3114 3112 3110 3108 3105 3103 3099 3096 3092 3087 3081 3076 3072 3066 3060 3054 3048 3042 3037 3032 3028 3023 3019 3015
3099 3101 3102 3104 3106 3106 3106 3106 3107 3109 3110 3110 3111 3112 3113 3113 3112 3113 3112 3110 3108 3106 3104 3102 3099 3095 3092 3087 3082 3076 3071 3067 3061 3055 3049 3043 3037 3032 3027 3023 3018 3014 3010
3096 3097 3099 3100 3102 3101 3103 3104 3104 3105 3106 3106 3108 3109 3109 3109 3110 3110 3109 3106 3105 3104 3100 3097 3094 3091 3087 3081 3076 3071 3066 3061 3055 3049 3043 3037 3032 3027 3022 3018 3013 3009 3005
3092 3094 3096 3098 3099 3099 3100 3100 3100 3101 3102 3103 3104 3105 3105 3105 3106 3106 3104 3103 3101 3098 3095 3092 3089 3086 3082 3076 3070 3065 3061 3056 3050 3044 3038 3032 3027 3022 3018 3013 3008 3004 3000
3090 3092 3093 3095 3096 3095 3095 3097 3097 3098 3098 3100 3101 3102 3102 3102 3102 3102 3100 3098 3095 3092 3090 3087 3084 3081 3076 3071 3065 3061 3056 3051 3045 3039 3033 3027 3022 3018 3013 3008 3004 3000 2997